Dewpoint
62 62 62 61 60 60 60 59 60 60 60 60 60 59 58 56 55 54 54 58 59 65 65 64 63 64 65 65 64 65 64 63 62 60 58 57 56 55 56 56 56 56 56
63 62 62 61 60 60 60 60 59 59 60 58 56 56 55 55 55 56 56 56 60 61 64 64 63 64 64 64 63 63 63 63 64 64 62 60 58 57 57 57 57 56 55
63 63 62 61 61 61 60 58 57 58 58 58 58 58 59 59 59 59 59 59 59 60 62 64 64 64 64 62 63 63 64 64 64 64 64 62 61 59 59 58 58 57 56
62 61 61 59 57 57 56 54 55 57 57 58 58 59 59 59 60 60 60 59 59 60 61 63 64 65 62 62 62 63 63 61 61 62 63 63 63 62 61 60 59 58 57
60 60 59 58 57 55 54 55 56 58 59 59 60 60 61 60 61 60 60 60 60 60 60 61 62 62 63 62 62 62 61 60 60 60 60 60 61 62 63 62 61 60 59
60 59 59 59 60 59 58 58 58 59 60 60 61 61 61 60 60 59 59 59 59 59 59 58 59 60 62 63 62 60 59 58 58 58 58 59 59 59 60 61 62 61 60
61 60 60 60 61 61 61 61 61 60 61 61 59 57 56 57 56 56 55 55 56 57 57 57 58 58 58 60 59 58 57 57 57 57 55 56 56 57 58 60 60 61 62
64 63 62 62 62 61 61 63 63 60 59 59 56 54 51 53 53 54 54 53 53 54 53 54 54 53 53 54 55 56 57 57 57 57 56 56 56 56 56 58 60 60 60
65 64 63 63 62 62 62 60 59 59 57 56 56 56 53 50 51 53 52 52 52 52 52 52 50 50 51 52 52 53 54 55 55 55 55 54 55 56 57 57 57 58 58
61 62 63 62 60 59 59 58 57 56 56 55 54 54 54 56 52 48 51 52 50 50 50 49 48 49 50 50 51 52 53 54 54 54 54 54 56 56 56 57 56 56 56
59 59 59 58 57 57 56 56 54 53 53 52 52 51 50 49 49 52 48 48 49 48 48 47 47 48 49 49 48 50 52 53 53 54 56 57 56 56 57 54 55 56 56
56 56 55 55 53 51 50 49 50 50 51 50 50 50 50 49 47 47 49 49 47 47 47 48 48 47 48 47 48 49 50 51 52 52 52 54 54 54 55 57 56 56 56
53 50 49 48 47 47 47 47 46 46 47 47 48 49 50 50 51 51 50 48 47 47 45 45 46 45 45 46 46 46 48 49 49 50 51 52 51 51 53 54 54 55 55
52 49 47 46 46 45 45 45 45 45 46 47 47 48 49 49 49 50 49 49 46 48 46 45 44 44 44 45 45 45 45 48 48 48 49 49 49 48 49 50 51 53 54
49 47 45 44 44 43 43 43 43 44 45 46 46 47 49 47 47 48 48 49 48 45 47 43 43 43 43 44 43 42 42 45 46 46 47 47 48 47 47 48 49 49 52
45 44 42 42 42 42 42 42 42 43 43 43 45 45 45 45 45 45 45 46 49 48 46 44 42 42 42 43 43 41 41 39 43 44 45 46 46 46 46 45 46 47 50
42 41 42 41 41 40 40 40 40 40 41 42 42 43 42 42 43 43 43 45 46 46 45 41 41 41 41 40 41 40 38 35 34 39 40 42 43 43 43 43 43 44 46
40 40 40 39 39 39 39 39 39 40 40 40 40 42 42 42 42 42 42 42 43 43 44 42 40 39 39 40 39 38 34 27 29 36 37 38 38 39 38 38 39 41 43
39 39 39 38 39 39 38 38 38 38 38 37 37 38 39 40 40 40 40 40 41 41 42 42 39 39 39 37 34 32 29 28 24 29 31 35 37 37 35 35 36 37 40
38 38 38 38 38 37 38 38 37 36 36 36 36 36 37 38 38 38 37 37 38 39 39 41 39 38 37 33 30 30 27 26 24 22 24 29 31 32 34 35 35 35 36
38 38 37 37 37 37 37 37 38 37 38 38 37 36 37 37 37 37 34 33 34 36 37 37 36 34 32 29 28 26 25 24 24 24 21 24 24 26 29 33 34 34 35
36 36 36 36 36 37 39 39 40 39 39 37 35 33 32 32 34 34 32 32 31 32 32 30 33 32 28 25 24 24 24 22 22 25 21 22 25 24 25 28 34 35 36
35 35 35 35 35 36 39 40 40 40 37 36 35 33 28 28 28 30 34 33 32 32 30 30 29 27 25 25 26 25 24 23 22 24 22 18 24 24 25 27 33 33 34
34 34 34 34 34 36 38 39 40 36 35 34 33 30 26 24 24 24 24 24 24 26 27 25 24 24 25 26 26 26 25 24 24 25 24 21 23 22 24 26 32 32 32
33 33 33 33 33 33 37 39 38 34 34 32 30 27 27 25 28 28 22 23 24 25 28 30 31 31 31 30 29 27 26 25 23 22 25 24 23 22 23 25 25 32 31
33 33 32 33 35 33 36 37 36 31 30 29 25 25 31 29 32 31 22 20 20 23 24 23 24 23 27 27 29 23 26 21 22 22 25 22 22 21 19 23 24 25 23
Lifted_Index
1 1 1 2 3 3 3 3 3 3 3 3 4 4 4 3 3 3 3 3 2 2 2 2 2 2 1 1 2 2 2 2 3 3 3 3 4 4 5 5 5 5 4
1 1 1 2 2 3 3 3 3 3 3 3 3 3 3 3 3 3 2 2 2 2 2 2 2 1 1 1 2 2 2 2 2 2 3 3 3 4 4 4 4 4 4
0 1 1 1 2 3 3 3 3 3 3 2 2 2 2 2 2 2 2 2 2 2 2 2 2 1 1 2 2 2 2 2 2 2 2 3 3 3 4 4 4 4 4
0 1 1 1 2 2 3 3 3 2 2 1 1 1 1 1 2 2 2 2 2 2 2 2 2 2 2 2 2 2 3 3 3 3 2 2 3 3 3 3 3 3 3
-0 0 1 1 2 2 2 1 1 1 1 1 0 0 1 1 2 2 2 2 2 2 2 2 2 2 2 2 2 3 3 4 4 4 3 3 3 2 2 2 2 2 2
-1 -1 -0 0 1 1 0 -0 -0 -0 0 0 0 1 1 2 2 3 3 3 3 3 3 2 2 2 3 3 3 4 4 4 4 4 4 4 4 3 2 2 1 1 1
-1 -1 -1 -1 -0 -0 -0 -1 -1 -0 0 1 1 1 2 2 3 3 3 3 3 3 3 2 2 2 3 4 5 5 5 5 5 5 5 5 5 4 3 2 1 1 1
-1 -1 -1 -1 -1 -1 -1 -1 -1 -0 -0 1 1 2 2 3 3 3 3 4 4 3 3 2 2 3 4 5 5 5 6 6 6 6 6 6 5 5 4 3 2 1 1
-1 -1 -1 -1 -1 -1 -1 -1 -1 -1 -1 0 1 2 3 3 3 3 4 4 4 4 3 3 3 4 4 5 5 5 6 6 7 7 6 6 5 5 4 4 3 2 2
-1 -1 -0 -0 -0 -0 -0 -1 -1 -1 0 1 2 3 3 4 4 5 5 5 5 5 4 4 4 4 5 5 5 5 5 6 7 7 7 6 6 5 5 4 4 3 3
-0 -0 -0 0 1 1 0 0 1 2 4 5 5 5 5 6 6 6 6 6 5 5 5 5 5 5 5 4 5 5 6 7 8 8 7 7 6 6 5 5 4 4 3
-0 0 0 1 1 1 2 3 5 6 7 7 7 7 7 7 7 7 7 7 6 6 6 5 5 5 5 5 5 5 6 7 8 8 8 8 8 7 7 6 5 4 4
0 0 1 1 2 2 4 6 6 7 7 8 8 8 8 7 7 8 8 8 8 7 7 6 6 5 5 5 5 6 7 8 9 9 9 9 9 9 8 7 6 6 5
0 0 1 1 3 4 6 6 5 6 7 8 8 8 8 8 8 8 8 8 8 8 7 6 6 6 6 6 6 7 8 8 9 9 10 10 10 10 9 8 8 7 7
0 1 1 2 4 5 5 4 4 5 6 7 8 8 8 8 8 9 9 9 9 8 8 7 7 7 7 7 7 7 8 8 9 9 10 10 10 10 9 9 8 8 8
1 2 3 4 5 4 4 3 4 5 6 8 8 9 9 9 9 9 10 10 9 9 8 8 7 7 7 7 7 8 8 9 9 10 10 10 10 10 10 9 9 8 8
3 3 4 5 4 3 3 4 4 6 7 8 8 8 9 9 9 9 10 10 9 9 8 8 8 7 7 7 7 7 8 9 9 10 11 11 11 11 11 10 10 9 8
4 5 5 4 4 3 4 4 5 6 7 8 8 8 8 9 9 9 9 9 9 9 8 8 8 7 7 7 6 7 8 9 9 10 11 12 13 13 13 12 11 10 9
5 5 5 5 4 4 5 5 6 7 7 8 8 8 8 8 8 8 8 8 8 8 8 8 7 7 7 7 7 7 8 9 10 11 13 14 15 16 16 15 13 11 10
6 6 5 5 5 5 6 6 7 7 8 8 8 8 8 8 8 8 8 8 8 8 8 7 7 7 7 7 7 8 9 10 11 13 15 16 17 18 18 17 16 14 13
6 6 6 6 6 6 6 7 7 7 7 8 8 8 9 9 9 9 9 8 8 8 7 7 6 7 7 8 9 11 11 12 13 15 16 16 17 18 18 18 18 17 16
6 6 6 6 6 6 7 7 7 7 7 7 7 8 9 10 10 11 11 10 9 8 8 7 7 8 9 10 12 13 13 13 13 15 16 16 17 17 18 19 18 18 18
6 6 6 6 6 6 7 7 7 7 7 7 8 9 9 10 11 13 13 13 12 11 10 10 11 11 12 13 14 15 14 14 14 15 15 15 16 17 18 19 19 18 18
5 5 5 6 6 6 7 8 8 8 8 9 10 10 10 11 13 15 15 15 14 14 14 14 15 15 15 16 16 15 15 14 14 15 15 15 15 16 17 18 18 18 18
5 5 5 5 6 6 7 8 9 9 8 9 10 11 12 14 16 16 15 15 15 15 16 16 16 17 17 17 17 16 14 13 13 14 15 15 15 16 16 17 18 18 18
4 5 5 5 6 7 8 9 9 9 8 8 10 12 13 16 17 16 15 14 14 14 15 16 16 17 17 17 17 16 14 12 11 13 14 15 15 15 15 16 17 17 18